sat.trackr.live / text

‹ back to catalog

HAWK-11A

NORAD 62382 · 2024-247F

PAYLOAD ACTIVE UNKNOWN

§ Identity

Operator
Country
US
Launch date
2024-12-21
Launch site
AFWTR
Launch vehicle
Mass (kg)
RCS (m²)

External: N2YO · Heavens-Above · Gunter

§ Orbital elements

Epoch: 2026-09-20T21:28:58.850976Z

Period
94.03 min
Inclination
44.9922°
Eccentricity
0.0001897
Mean motion
15.31427042 rev/d
Perigee alt
470.3 km
Apogee alt
472.9 km
Semi-major
6,849.7 km
B*
1.5072e-4
RAAN
123.2587°
Arg perigee
46.9392°
Mean anomaly
313.1651°
Rev number
9,767

§ Raw data

HAWK-11A1 62382U 24247F   26263.89512559  .00004357  00000+0  15072-3 0  99992 62382  44.9922 123.2587 0001897  46.9392 313.1651 15.31427042 97677

JSON: /api/v1/satellites/62382 · /tle

For live sub-satellite position, see the globe view (requires WebGL).

§ Visibility from observer

Set your observer location to see the next 7 days of passes ≥ 10°. The values pass through the URL so the page stays shareable.

No JS? Fill the form by hand. The geolocation button needs JavaScript.